Last 6 Hours

Alpine-Summit 8643' (Ward Mt.)

15 Minute Data | America/Los_Angeles
as of 3/29/20 2:58 PM PDT
Date & Time Temp (°F) RH (%) Dew Pt (°F) Wet Bulb (°F) Wind Dir (°) Wind Spd (mph) Wind Gust (mph) WindChill (°F)
3/29/20 - 1445 28.6 100 28.6 28.6 WSW | 240 30.5 39.0 13.8
3/29/20 - 1430 30.2 100 30.2 30.2 SW | 219 31.9 37.7 14.6
3/29/20 - 1415 29.8 100 29.8 29.8 SW | 217 34.2 39.9 14.7
3/29/20 - 1400 30.7 100 30.7 30.7 SSW | 210 30.8 38.5 15.4
3/29/20 - 1345 30.3 100 30.3 30.3 SSW | 213 27.2 32.9 16.2
3/29/20 - 1330 30.7 100 30.7 30.7 SW | 214 26.5 31.8 16.3
3/29/20 - 1315 30.1 100 30.1 30.1 SW | 216 27.4 33.4 15.1
3/29/20 - 1300 29.4 100 29.4 29.4 SW | 217 27.2 30.7 15.2
3/29/20 - 1245 30.0 99 29.8 29.9 SW | 217 27.2 32.0 14.5
3/29/20 - 1230 28.9 100 28.9 28.9 SW | 227 27.4 34.2 14.2
3/29/20 - 1215 29.4 100 29.4 29.4 SW | 220 27.0 33.9 15.3
3/29/20 - 1200 29.6 100 29.6 29.6 SW | 219 24.7 28.4 15.9
3/29/20 - 1145 29.8 100 29.8 29.8 SSW | 213 22.4 28.1 16.4
3/29/20 - 1130 29.6 100 29.6 29.6 SW | 218 21.5 28.4 15.9
3/29/20 - 1115 29.0 100 29.0 29.0 SSW | 213 24.3 28.5 14.7
3/29/20 - 1100 29.2 100 29.1 29.2 SSW | 211 26.6 29.8 13.9
3/29/20 - 1045 28.3 100 28.2 28.2 SSW | 208 23.5 27.2 13.6
3/29/20 - 1030 27.2 99 27.0 27.1 SW | 225 23.9 27.3 12.0
3/29/20 - 1015 26.5 99 26.4 26.5 SSW | 212 27.7 33.5 10.5
3/29/20 - 1000 26.2 99 25.9 26.0 SW | 218 30.6 35.3 8.9
3/29/20 - 0945 25.1 99 24.8 24.9 SW | 225 32.5 38.0 7.3
3/29/20 - 0930 24.9 99 24.6 24.7 SW | 233 32.8 38.7 7.1
3/29/20 - 0915 24.5 98 24.1 24.4 SW | 232 33.0 37.9 6.4
3/29/20 - 0900 24.1 98 23.7 23.9 SW | 236 32.1 37.1 6.2
Max 30.7 100 30.7 30.7 - 34.2 39.9 16.4
Avg 28.4 100 28.3 28.4 - 28.0 33.4 13.1
Min 24.1 98 23.7 23.9 - 21.5 27.2 6.2